Погода в Сатти

Россия / Чеченская Республика     42°51′11″N   45°42′56″E
темп.,
°C
ветер,
м/с
пор.,
м/с
влажн.,
%
обл.,
%
осадки,
мм/ч
давл.,
гПа
погр.,
м
13 мая, чт
чт1300:00+9ю45530 0.0 101572
03:00+9ю56545 0.0 101584
06:00+11ю46493 0.0 1015107
09:00+21ююз26261 0.0 10122278
12:00+22сз252830 0.0 10132575
15:00+21ссз23363 0.0 10132056
18:00+16с12730 0.0 1015149
21:00+12ю3364100 0.1 101744
14 мая, пт
пт1400:00+11ю45605 0.0 101773
03:00+10ю46545 0.0 101771
06:00+12ю45550 0.0 101786
09:00+22ююв23280 0.0 10141500
12:00+25с132663 0.0 10133057
15:00+20с235281 0.2 1014465
18:00+16вюв126771 0.9 101554
21:00+11ююв46762 1.3 1017106
15 мая, сб
сб1500:00+10ю46600 0.0 101781
03:00+10ю46690 0.0 101687
06:00+12ю35640 0.0 101691
09:00+22ссв21300 0.0 10141144
12:00+23с433314 0.0 10142417
15:00+21с334222 0.1 10141639
18:00+16з1170100 0.8 101521
21:00+11ю4582100 1.5 101775
16 мая, вс
вс1600:00+10ю4577100 0.0 101679
03:00+10ю45785 0.0 101583
06:00+11ю45640 0.0 1014129
09:00+21ююв22310 0.0 10111228
12:00+24юв14240 0.0 10082451
15:00+24з03281 0.0 10072410
18:00+19ю22470 0.0 100860
21:00+11ю564840 0.0 1012105
17 мая, пн
пн1700:00+11ю5743100 0.0 1011125
03:00+10ю57491 0.0 1010105
06:00+13ю46535 0.0 1010129
09:00+23ю232785 0.0 10071315
12:00+25ссв04211 0.0 10062891
15:00+24с132715 0.0 10062509
18:00+19ююз125199 0.0 100838
21:00+13ю44515 0.0 101254